Williston, ND

11:54 PM CST on February 24, 2017 (GMT -0600)
Sloulin International

Weather History for KISN - December, 2013

Change the Weather History Date:

Tuesday, December 10, 2013

  Actual Average Record
Temperature  
Mean Temperature 2 °F 15 °F  
Max Temperature 18 °F 26 °F 54 °F (1987)
Min Temperature -15 °F 5 °F -27 °F (1919)
Degree Days  
Heating Degree Days 63 50  
Month to date heating degree days 626 481  
Since 1 July heating degree days 2700 2643  
Cooling Degree Days 0 0  
Month to date cooling degree days 0 0  
Year to date cooling degree days 405 456  
Moisture  
Dew Point -1 °F    
Average Humidity 74    
Maximum Humidity 88    
Minimum Humidity 59    
Precipitation  
Precipitation 0.01 in 0.02 in 0.72 in (2010)
Month to date precipitation 0.57 0.19  
Year to date precipitation 20.78 13.94  
Sea Level Pressure  
Sea Level Pressure 30.15 in    
Wind  
Wind Speed 12 mph (NW)    
Max Wind Speed 28 mph    
Max Gust Speed 37 mph    
Visibility 7 miles    
Events Snow    
T = Trace of Precipitation, MM = Missing Value Source: NWS Daily Summary

Daily Weather History Graph

Daily Weather History Graph

Search for Another Location

Airport or City:

Trip Planner

Search our weather history database for the weather conditions in past years. The results will help you decide how hot, cold, wet, or windy it might be!

Date:

Astronomy

Dec. 10, 2013 Rise Set
Actual Time 8:34 AM CST 5:00 PM CST
Civil Twilight 7:58 AM CST 5:36 PM CST
Nautical Twilight 7:18 AM CST 6:16 PM CST
Astronomical Twilight 6:40 AM CST 6:54 PM CST
Moon 1:27 PM CST (12/10) 1:28 AM CST (12/10)
Length of Visible Light 9h 38m
Length of Day
8h 26m
Waxing Gibbous, 62% of the Moon is Illuminated
Dec 10
Waxing Gibbous
Dec 17
Full
Dec 25
Last Quarter
Jan 1
New
Jan 7
First Quarter

Hourly Weather History & Observations

Time (CST) Temp. Windchill Dew Point Humidity Pressure Visibility Wind Dir Wind Speed Gust Speed Precip Events Conditions
12:52 AM 1.9 °F -12.9 °F -4.0 °F 76% 30.06 in 10.0 mi WSW 9.2 mph - N/A   Overcast
1:52 AM 3.9 °F -6.9 °F -2.0 °F 76% 30.03 in 10.0 mi WSW 5.8 mph - N/A   Overcast
2:52 AM 5.0 °F -11.6 °F -0.9 °F 76% 30.03 in 10.0 mi SW 12.7 mph - N/A   Overcast
3:52 AM 7.0 °F -8.3 °F 1.0 °F 77% 30.00 in 10.0 mi SW 11.5 mph - N/A   Overcast
4:52 AM 9.0 °F -3.2 °F 3.9 °F 80% 29.97 in 3.0 mi SW 8.1 mph - 0.00 in Snow Light Snow
5:52 AM 14.0 °F 1.2 °F 10.0 °F 84% 29.96 in 7.0 mi West 10.4 mph - 0.00 in Snow Light Snow
6:52 AM 12.0 °F 1.5 °F 9.0 °F 88% 29.96 in 6.0 mi SW 6.9 mph - 0.00 in   Overcast
7:52 AM 15.1 °F 2.5 °F 10.9 °F 84% 29.98 in 8.0 mi WSW 10.4 mph - 0.01 in   Overcast
8:52 AM 17.1 °F 3.6 °F 12.0 °F 81% 30.01 in 9.0 mi WNW 12.7 mph - 0.00 in   Overcast
9:10 AM 17.6 °F 3.2 °F 12.2 °F 79% 29.89 in 2.0 mi NNW 15.0 mph - 0.00 in Snow Light Snow
9:22 AM 17.6 °F 3.2 °F 10.4 °F 73% 29.90 in 5.0 mi NNW 15.0 mph 21.9 mph 0.00 in Snow Light Snow
9:36 AM 17.6 °F 1.3 °F 10.4 °F 73% 29.91 in 3.0 mi North 19.6 mph 25.3 mph 0.00 in Snow Light Snow
9:41 AM 15.8 °F -2.7 °F 10.4 °F 79% 29.92 in 1.8 mi North 24.2 mph 28.8 mph 0.00 in Snow Light Snow
9:46 AM 12.2 °F -5.8 °F 8.6 °F 85% 29.92 in 1.0 mi North 19.6 mph 28.8 mph 0.00 in Snow Light Snow
9:52 AM 12.9 °F -4.4 °F 8.1 °F 81% 30.07 in 1.0 mi North 18.4 mph - 0.00 in Snow Light Snow
10:04 AM 12.2 °F -6.7 °F 6.8 °F 79% 29.94 in 3.0 mi North 21.9 mph - 0.00 in Snow Light Snow
10:10 AM 12.2 °F -5.8 °F 6.8 °F 79% 29.95 in 2.5 mi North 19.6 mph 29.9 mph 0.00 in Snow Light Snow
10:27 AM 10.4 °F -9.1 °F 5.0 °F 79% 29.97 in 1.5 mi North 21.9 mph - 0.00 in Snow Light Snow
10:37 AM 10.4 °F -8.6 °F 5.0 °F 79% 29.98 in 2.5 mi North 20.7 mph - 0.00 in Snow Light Snow
10:49 AM 10.4 °F -9.9 °F 3.2 °F 73% 30.00 in 1.5 mi North 24.2 mph 29.9 mph 0.00 in Snow Light Snow
10:52 AM 10.0 °F -10.8 °F 3.9 °F 76% 30.15 in 1.2 mi North 25.3 mph 31.1 mph 0.00 in Snow Light Snow
11:03 AM 10.4 °F -9.5 °F 1.4 °F 67% 30.01 in 2.5 mi North 23.0 mph 33.4 mph 0.00 in Snow Blowing Snow
11:09 AM 8.6 °F -12.3 °F 1.4 °F 73% 30.02 in 3.0 mi North 24.2 mph 29.9 mph 0.00 in Snow Blowing Snow
11:52 AM 7.0 °F -14.5 °F -4.0 °F 61% 30.21 in 6.0 mi North 24.2 mph 29.9 mph 0.00 in   Haze
12:52 PM 5.0 °F -14.2 °F -6.0 °F 61% 30.23 in 10.0 mi NNW 17.3 mph 27.6 mph N/A   Partly Cloudy
1:52 PM 3.0 °F -14.8 °F -8.0 °F 60% 30.28 in 10.0 mi NNW 13.8 mph - N/A   Clear
2:52 PM 1.0 °F -15.8 °F -9.0 °F 63% 30.32 in 10.0 mi NNW 11.5 mph - N/A   Clear
3:52 PM 1.0 °F -19.9 °F -9.0 °F 63% 30.35 in 10.0 mi NNW 18.4 mph - N/A   Clear
4:52 PM -0.9 °F -19.9 °F -11.0 °F 62% 30.40 in 10.0 mi NNW 13.8 mph - N/A   Clear
5:52 PM -2.9 °F -20.8 °F -11.9 °F 65% 30.42 in 10.0 mi NNW 11.5 mph - N/A   Clear
6:52 PM -6.0 °F -16.9 °F -13.0 °F 72% 30.48 in 10.0 mi NNW 4.6 mph - N/A   Clear
7:52 PM -9.0 °F -25.2 °F -15.0 °F 75% 30.50 in 10.0 mi NW 8.1 mph - N/A   Clear
8:52 PM -9.0 °F -23.8 °F -16.1 °F 71% 30.52 in 10.0 mi NW 6.9 mph - N/A   Clear
9:52 PM -14.1 °F -28.3 °F -18.9 °F 79% 30.55 in 10.0 mi WSW 5.8 mph - N/A   Clear
10:52 PM -13.0 °F -28.6 °F -18.9 °F 75% 30.56 in 10.0 mi West 6.9 mph - N/A   Clear
11:52 PM -14.1 °F -32.6 °F -20.0 °F 75% 30.57 in 10.0 mi West 9.2 mph - N/A   Clear